This is the latest recevied weather packets stored in our database for station/object KI7MOQ. If no packets are shown the sender has not sent any weather packets the latest 10 day(s).
| Time | Temp. | Humidity | Pressure | Rain* | Wind** | Luminosity | Snow |
|---|---|---|---|---|---|---|---|
| 1778120937 | 15.56° C | 75% | 1022.5 hPa | 0 mm | - | 13 W/m² | - |
| 1778120633 | 15.56° C | 75% | 1022.6 hPa | 0 mm | - | 16 W/m² | - |
| 1778120324 | 15.56° C | 74% | 1022.5 hPa | 0 mm | - | 19 W/m² | - |
| 1778120020 | 15.56° C | 74% | 1022.5 hPa | 0 mm | - | 13 W/m² | - |
| 1778119718 | 16.11° C | 74% | 1022.7 hPa | 0 mm | - | 16 W/m² | - |
| 1778119414 | 16.11° C | 73% | 1022.5 hPa | 0 mm | - | 15 W/m² | - |
| 1778119111 | 16.11° C | 73% | 1022.4 hPa | 0 mm | - | 18 W/m² | - |
| 1778118809 | 16.11° C | 73% | 1022.6 hPa | 0 mm | - | 30 W/m² | - |
| 1778118506 | 16.67° C | 72% | 1022.7 hPa | 0 mm | - | 30 W/m² | - |
| 1778118202 | 16.11° C | 72% | 1022.7 hPa | 0 mm | - | 32 W/m² | - |
| 1778117898 | 16.67° C | 72% | 1022.7 hPa | 0 mm | - | 39 W/m² | - |
| 1778117596 | 16.67° C | 72% | 1022.6 hPa | 0 mm | - | 37 W/m² | - |
| 1778117293 | 16.67° C | 72% | 1022.8 hPa | 0 mm | - | 44 W/m² | - |
| 1778116988 | 16.67° C | 72% | 1022.8 hPa | 0 mm | - | 48 W/m² | - |
| 1778116686 | 16.67° C | 72% | 1022.6 hPa | 0 mm | - | 44 W/m² | - |
| 1778116382 | 16.67° C | 71% | 1022.6 hPa | 0 mm | - | 42 W/m² | - |
| 1778116082 | 17.22° C | 71% | 1022.8 hPa | 0 mm | - | 45 W/m² | - |
| 1778115778 | 17.22° C | 71% | 1022.6 hPa | 0 mm | - | 45 W/m² | - |
| 1778115476 | 17.22° C | 69% | 1022.7 hPa | 0 mm | - | 43 W/m² | - |
| 1778115172 | 17.78° C | 70% | 1022.7 hPa | 0 mm | - | 52 W/m² | - |
| 1778114869 | 17.78° C | 69% | 1022.8 hPa | 0 mm | - | 50 W/m² | - |
| 1778114566 | 17.78° C | 69% | 1022.7 hPa | 0 mm | - | 54 W/m² | - |
| 1778114262 | 17.78° C | 70% | 1022.7 hPa | 0 mm | - | 49 W/m² | - |
| 1778113957 | 17.78° C | 68% | 1022.7 hPa | 0 mm | - | 61 W/m² | - |
| 1778113654 | 18.33° C | 68% | 1022.5 hPa | 0 mm | - | 63 W/m² | - |
* Rain latest hour (hover to see other rain measurements)
** Current wind speed in m/s (hover to see current wind gust speed)